Location: Sternwarte ZA, Rosenfeld-Brittheim
(48.2889°N, 8.6789°E)
Time: 16:14:38
(UTC+02:00)

Envisat - Visible Passes

Search period start: 25 May 2017 00:00
Search period end: 04 June 2017 00:00
Orbit: 764 x 766 km, 98.2° (Epoch: 24 May)

Date Brightness Start Highest point End Pass type
(mag) Time Alt. Az. Time Alt. Az. Time Alt. Az.
25 May 4.9 22:18:49 10° SSW 22:23:08 28° W 22:27:29 10° NW visible
27 May 5.5 22:45:47 10° SW 22:49:02 17° W 22:52:19 10° NW visible
28 May 4.5 22:07:22 10° SSW 22:11:58 34° W 22:16:36 10° NNW visible
30 May 5.3 22:34:03 10° SW 22:37:50 21° W 22:41:38 10° NW visible
31 May 4.2 21:56:01 10° SSW 22:00:49 42° W 22:05:39 10° NNW visible
01 Jun 5.6 23:01:43 10° WSW 23:03:48 12° W 23:05:54 10° WNW visible
02 Jun 5.0 22:22:27 10° SSW 22:26:38 26° W 22:30:51 10° NW visible
